Forside
METAR-TAF:

METAR-TAF

Lufthavne :

West Memphis, Arkansas, USA

Breddekreds: 35-08N, længdekreds: 090-14W, højde: 65 m

Aktuelle vejr

Denne rapport blev lavet for 53 minutter siden, kl. 17:53 UTC
Vind 11 kt fra sydøst
Temperatur 3°C
Fugtighed 65%
Tryk 1030 hPa
Sigt: 16.1 km
skyfri

METAR: KAWM 211753Z AUTO 13011KT 10SM CLR 03/M03 A3042 RMK AO2 SLP305 T00281033 10028 21033 58010 $

Tid: 12:46 (18:46 UTC)


TAF: fraværende

Vejrobservationer og prognoser fra mere end 4000 lufthavne (METAR og TAF).

De gule og røde prikker repræsenterer de meteorologiske stationer.

Flyt musen over at se navnet på stationen.

Så klik over at se vejr observationer og prognoser.

At skifte det kort: Klik på de grønne knapper med et sort kors for at zoome ind; på den grønne knap med en bindestreg for at zoome ud; eller på de grønne pile for tilstødende kort.


METAR-TAF: